Regional Weather Roundup
Issued by NWS Boston, MA

Home | Current Version | Previous Version | Text Only | Print | Product List | Glossary On
Versions: 1 2 3 4 5 6 7 8 9 10 11 12 13 14 15 16 17 18 19 20 21 22 23 24 25 26 27 28 29 30 31 32 33 34 35 36 37 38 39 40 41 42 43 44 45 46 47 48 49 50
000
ASUS41 KBOX 291510
RWRBOX

REGIONAL WEATHER ROUNDUP
NATIONAL WEATHER SERVICE TAUNTON MA
1100 AM EDT SAT AUG 29 2015

NOTE:  "FAIR" INDICATES FEW OR NO CLOUDS BELOW 12,000 FEET WITH NO
SIGNIFICANT WEATHER AND/OR OBSTRUCTIONS TO VISIBILITY.  THE FOLLOWING
OBSERVATION LOCATIONS DO NOT REPORT PRESENT WEATHER...PROVINCETOWN...
SMITHFIELD...BLOCK ISLAND...KEENE...AND OXFORD.

MAZALL-291600-
EASTERN MASSACHUSETTS

CITY           SKY/WX    TMP DP  RH WIND       PRES   REMARKS
BOSTON         MOSUNNY   78  53  41 SW13      30.19S
BEVERLY        SUNNY     76  55  48 W9        30.18S
LAWRENCE       SUNNY     75  56  51 SW6       30.20F
BEDFORD        MOSUNNY   76  53  44 SW9       30.17F
BLUE HILL        N/A     74  53  48 W13       30.20S
NORWOOD        SUNNY     77  55  46 W9        30.19F
MARSHFIELD     SUNNY     77  57  50 SW7       30.20F
PLYMOUTH       SUNNY     77  55  46 SW12      30.20F
TAUNTON        SUNNY     78  55  44 W8        30.19F
NEW BEDFORD    SUNNY     78  56  46 SW8       30.19F
$$

MAZALL-291600-
CAPE COD AND THE ISLANDS

CITY           SKY/WX    TMP DP  RH WIND       PRES   REMARKS
FALMOUTH       SUNNY     77  57  50 W10G17    30.20F
HYANNIS        MOSUNNY   78  58  49 W10       30.19S
CHATHAM        SUNNY     77  62  59 VRB6G17   30.21S
PROVINCETOWN   SUNNY     75  55  50 W5        30.21S
NANTUCKET      SUNNY     78  61  55 W13       30.21S
MARTHAS VNYRD  SUNNY     78  56  46 VRB7      30.21S
$$

MAZALL-291600-
CENTRAL AND WESTERN MASSACHUSETTS

CITY           SKY/WX    TMP DP  RH WIND       PRES   REMARKS
WORCESTER      SUNNY     70  54  56 W9        30.22F
FITCHBURG      SUNNY     76  53  44 W6        30.20S
ORANGE         SUNNY     71  57  61 CALM      30.20F
SPRINGFIELD    SUNNY     74  55  52 S7        30.19F
WESTFIELD      MOSUNNY   74  56  53 VRB7      30.20F
NORTH ADAMS    MOSUNNY   68  57  68 CALM      30.22S
PITTSFIELD     SUNNY     68  55  63 SW3       30.22S
$$

RIZALL-291600-
RHODE ISLAND

CITY           SKY/WX    TMP DP  RH WIND       PRES   REMARKS
PROVIDENCE     PTSUNNY   77  53  43 SW13      30.20F
NEWPORT        SUNNY     77  56  48 VRB3      30.20F
BLOCK ISLAND   SUNNY     75  61  60 W7        30.22S
SMITHFIELD     MOSUNNY   73  55  53 W10       30.21S
WESTERLY       SUNNY     76  57  51 SW7       30.21F
$$

CTZALL-291600-
CONNECTICUT

CITY           SKY/WX    TMP DP  RH WIND       PRES   REMARKS
BRADLEY INTL   PTSUNNY   75  56  51 W5        30.20S
HARTFORD       SUNNY     75  58  55 SE7       30.20F
BRIDGEPORT     SUNNY     76  58  53 S7        30.22R
DANBURY        SUNNY     74  54  49 SW7       30.23F
GROTON         SUNNY     73  62  68 SW9       30.20F
NEW HAVEN      MOSUNNY   76  57  51 S7        30.22S
CHESTER        NOT AVBL
MERIDEN        SUNNY     77  55  46 CALM      30.21S
WILLIMANTIC    SUNNY     75  55  49 W6        30.21S
OXFORD         MOSUNNY   73  52  46 NW6       30.25S
$$

MEZ002-015-021-024-NHZ003-005-008-011-012-014-VTZ005-008-291600-
NORTHERN NEW ENGLAND

CITY           SKY/WX    TMP DP  RH WIND       PRES   REMARKS
PORTLAND ME    PTSUNNY   74  59  59 VRB6      30.18S
BANGOR ME      CLOUDY    71  58  63 VRB7      30.16S
CONCORD NH     SUNNY     72  57  59 NW5       30.19S
MANCHESTER NH  PTSUNNY   74  54  49 CALM      30.17F
NASHUA NH      SUNNY     74  57  55 NW5       30.19F
PORTSMOUTH NH  PTSUNNY   74  57  54 W2        30.16F
JAFFREY NH     SUNNY     71  55  56 VRB5      30.22S
KEENE NH       SUNNY     66  54  63 CALM      30.21F
BURLINGTON VT  PTSUNNY   69  56  62 S6        30.17F
MT. WASHINGTON PTSUNNY   52  34  50 W14         N/A
$$

NYZ052-076-291600-
EASTERN NEW YORK

CITY           SKY/WX    TMP DP  RH WIND       PRES   REMARKS
ALBANY         PTSUNNY   71  56  58 S6        30.21S
NEW YORK CITY  PTSUNNY   80  53  39 VRB3      30.20S
$$

ANZALL-291600-
MARINE OBSERVATIONS

STATION/POSITION TIME  TEMP    WIND        PRES    VSBY  WAVE
                       AIR SEA DIR/SP/G                  HT/PER
                 (UTC) (F)     (DEG/KT/KT) (MB)    (MI)  (FT/S)
BOSTON BUOY      1450   69 69  280/  2/  4 1022.5S         2/11
BUZZARDS BAY     1400          210/  3/  3 1023.9R
NANTUCKET SOUND  1450   71 75  240/ 10/ 12 1022.7R         1/ 9
MASS BAY-STELLWA 1404   68 68  240/  6/  6   N/A    1 7/8  2/11
ISLE OF SHOALS   1500   66     160/  3/  4 1021.5F
S OF BLOCK IS    1408      74                N/A           3/11
$$

......................KEY.........................
  SKY/WX - SKY CONDITION/PRESENT WEATHER
  TMP    - TEMPERATURE IN FAHRENHEIT
  DWPT   - DEWPOINT IN FAHRENHEIT
  RH     - RELATIVE HUMIDITY IN PERCENT
  WIND   - DIRECTION AND SPEED IN MPH
  PRES   - MEAN SEA LEVEL PRESSURE IN INCHES OF HG
  WCI    - WIND CHILL INDEX
  VSB    - VISIBILITY IN MILES
  HX     - HEAT INDEX
  TC     - TEMPERATURE IN CELSIUS
  VRB    - VARIABLE WIND DIRECTION
  N/A    - NOT AVAILABLE



USA.gov is the U.S. government's official web portal to all federal, state and local government web resources and services.